Location: Newark
(47.4833°N, 7.5167°E)
Time: 03:13:13
(UTC+00:00)

N. Korean satellite - Pass Details

Date: 20 October 2019
Orbit: 456 x 506 km, 97.2° (Epoch: 20 November)

Event Time Altitude Azimuth Distance (km) Brightness Sun altitude
Rises 04:46:34 0° 23° (NNE) 2,556 10.5 -12.3°
Reaches altitude 10° 04:48:53 10° 37° (NE) 1,680 9.8 -11.9°
Maximum altitude 04:51:56 25° 95° (E) 1,017 9.2 -11.4°
Drops below altitude 10° 04:55:00 10° 153° (SSE) 1,690 9.7 -10.9°
Sets 04:57:21 0° 166° (SSE) 2,575 10.5 -10.5°
